Location: Hope
(40.9110°N, 74.9680°W)
Time: 01:07:57
(UTC-04:00)

Envisat - Pass Details

Date: 31 January 2019
Orbit: 764 x 766 km, 98.1° (Epoch: 23 October)

Event Time Altitude Azimuth Distance (km) Brightness Sun altitude
Rises 17:52:29 0° 139° (SE) 3,221 6.0 -7.4°
Reaches altitude 10° 17:54:59 10° 129° (SE) 2,299 5.1 -7.8°
Maximum altitude 17:59:24 31° 68° (ENE) 1,317 3.7 -8.6°
Drops below altitude 10° 18:03:51 10° 7° (N) 2,311 5.3 -9.5°
Sets 18:06:22 0° 358° (N) 3,242 6.1 -9.9°
